Simultaneous Nadir Overpasses (SNOs) Predictions

Prediction of SNOs between AQUA and GOES-15 Satellite Orbit:

Table of predicted SNOs for the next 14.0 days since TLE Epoch: 10/27/2012
Index Date Time (AQUA) AQUA Lat,Lon GOES-15 Lat,Lon Distance(km) Time Diff (sec)
1 10/28/2012 22:22:28 0.55,-131.90 -0.12,-135.14 367.49 80
2 10/29/2012 10:43:43 0.50,-137.06 0.09,-135.17 215.55 80
3 10/31/2012 10:31:27 -0.14,-134.09 0.10,-135.11 117.26 80
4 10/31/2012 22:52:50 -0.96,-139.27 -0.07,-135.05 479.69 80
5 11/02/2012 10:19:09 -0.73,-131.10 0.10,-135.06 449.90 80
6 11/02/2012 22:40:32 -0.35,-136.29 -0.07,-134.99 146.99 80
7 11/04/2012 22:28:13 0.27,-133.30 -0.07,-134.93 185.52 80
8 11/05/2012 10:49:27 0.79,-138.45 0.05,-134.96 397.13 80
9 11/07/2012 10:37:06 0.20,-135.45 0.05,-134.89 64.67 80
10 11/09/2012 10:24:45 -0.45,-132.46 0.05,-134.81 267.90 80
11 11/09/2012 22:46:07 -0.62,-137.64 -0.03,-134.74 329.42 80




NCC Satellite Simultaneous Nadir Overpasses (SNOs) Prediction Service
